Time,TemperatureF,DewpointF,PressureIn,WindDirection,WindDirectionDegrees,WindSpeedMPH,WindSpeedGustMPH,Humidity,HourlyPrecipIn,Conditions,Clouds,dailyrainin,SolarRadiationWatts/m^2,SoftwareType,DateUTC
2013-03-01 00:01:00,33.0,31.0,-100.00,NW,319,0.0,3.0,93,0.00,,,0.01,0.000000,,2013-03-01 07:01:00,
2013-03-01 00:11:00,33.0,31.0,-100.00,NW,319,0.0,3.0,93,0.00,,,0.01,0.000000,,2013-03-01 07:11:00,
2013-03-01 00:21:00,33.0,31.0,-100.00,NW,319,0.0,3.0,93,0.00,,,0.01,0.000000,,2013-03-01 07:21:00,
2013-03-01 00:32:00,33.0,31.0,-100.00,NW,319,0.0,3.0,93,0.00,,,0.01,0.000000,,2013-03-01 07:32:00,
2013-03-01 01:01:00,32.0,30.0,-100.00,NNE,12,2.0,4.0,92,0.00,,,0.01,0.000000,,2013-03-01 08:01:00,
2013-03-01 01:11:00,32.0,30.0,-100.00,NNE,12,2.0,4.0,92,0.00,,,0.01,0.000000,,2013-03-01 08:11:00,
2013-03-01 01:22:00,32.0,30.0,-100.00,NNE,12,2.0,4.0,92,0.00,,,0.01,0.000000,,2013-03-01 08:22:00,
2013-03-01 01:31:00,32.0,30.0,-100.00,NNE,12,2.0,4.0,92,0.00,,,0.01,0.000000,,2013-03-01 08:31:00,
2013-03-01 01:53:00,33.0,31.0,-100.00,ENE,69,2.0,4.0,92,0.00,,,0.01,0.000000,,2013-03-01 08:53:00,
2013-03-01 02:02:00,33.0,31.0,-100.00,ENE,69,2.0,4.0,92,0.00,,,0.01,0.000000,,2013-03-01 09:02:00,
2013-03-01 02:11:00,33.0,31.0,-100.00,ENE,69,2.0,4.0,92,0.00,,,0.01,0.000000,,2013-03-01 09:11:00,
2013-03-01 02:21:00,33.0,31.0,-100.00,ENE,69,2.0,4.0,92,0.00,,,0.01,0.000000,,2013-03-01 09:21:00,
2013-03-01 02:31:00,33.0,31.0,-100.00,ENE,69,2.0,4.0,92,0.00,,,0.01,0.000000,,2013-03-01 09:31:00,
2013-03-01 03:01:00,33.0,31.0,-100.00,ESE,103,1.0,5.0,92,0.00,,,0.01,0.000000,,2013-03-01 10:01:00,
2013-03-01 03:11:00,33.0,31.0,-100.00,ESE,103,1.0,5.0,92,0.00,,,0.01,0.000000,,2013-03-01 10:11:00,
2013-03-01 03:21:00,33.0,31.0,-100.00,ESE,103,1.0,5.0,92,0.00,,,0.01,0.000000,,2013-03-01 10:21:00,
2013-03-01 03:31:00,33.0,31.0,-100.00,ESE,103,1.0,5.0,92,0.00,,,0.01,0.000000,,2013-03-01 10:31:00,
2013-03-01 03:52:00,32.0,30.0,-100.00,ESE,103,3.0,5.0,92,0.00,,,0.01,0.000000,,2013-03-01 10:52:00,
2013-03-01 04:01:00,32.0,30.0,-100.00,ESE,103,3.0,5.0,92,0.00,,,0.01,0.000000,,2013-03-01 11:01:00,
2013-03-01 04:11:00,32.0,30.0,-100.00,ESE,103,3.0,5.0,92,0.00,,,0.01,0.000000,,2013-03-01 11:11:00,
2013-03-01 04:22:00,32.0,30.0,-100.00,ESE,103,3.0,5.0,92,0.00,,,0.01,0.000000,,2013-03-01 11:22:00,
2013-03-01 04:31:00,32.0,30.0,-100.00,ESE,103,3.0,5.0,92,0.00,,,0.01,0.000000,,2013-03-01 11:31:00,
2013-03-01 04:52:00,33.0,31.0,-100.00,NE,55,2.0,6.0,92,0.00,,,0.01,0.000000,,2013-03-01 11:52:00,
2013-03-01 05:01:00,33.0,31.0,-100.00,NE,55,2.0,6.0,92,0.00,,,0.01,0.000000,,2013-03-01 12:01:00,
2013-03-01 05:11:00,33.0,31.0,-100.00,NE,55,2.0,6.0,92,0.00,,,0.01,0.000000,,2013-03-01 12:11:00,
2013-03-01 05:21:00,33.0,31.0,-100.00,NE,55,2.0,6.0,92,0.00,,,0.01,0.000000,,2013-03-01 12:21:00,
2013-03-01 05:32:00,33.0,31.0,-100.00,NE,55,2.0,6.0,92,0.00,,,0.01,0.000000,,2013-03-01 12:32:00,
2013-03-01 05:52:00,33.0,31.0,-100.00,ENE,66,1.0,4.0,92,0.00,,,0.01,0.000000,,2013-03-01 12:52:00,
2013-03-01 06:01:00,33.0,31.0,-100.00,ENE,66,1.0,4.0,92,0.00,,,0.01,0.000000,,2013-03-01 13:01:00,
2013-03-01 06:11:00,33.0,31.0,-100.00,ENE,66,1.0,4.0,92,0.00,,,0.01,0.000000,,2013-03-01 13:11:00,
2013-03-01 06:21:00,33.0,31.0,-100.00,ENE,66,1.0,4.0,92,0.00,,,0.01,0.000000,,2013-03-01 13:21:00,
2013-03-01 06:32:00,33.0,31.0,-100.00,ENE,66,1.0,4.0,92,0.00,,,0.01,0.000000,,2013-03-01 13:32:00,
2013-03-01 07:01:00,32.0,30.0,-100.00,ESE,110,4.0,6.0,94,0.00,,,0.01,0.000000,,2013-03-01 14:01:00,
2013-03-01 07:11:00,32.0,30.0,-100.00,ESE,110,4.0,6.0,94,0.00,,,0.01,0.000000,,2013-03-01 14:11:00,
2013-03-01 07:21:00,32.0,30.0,-100.00,ESE,110,4.0,6.0,94,0.00,,,0.01,0.000000,,2013-03-01 14:21:00,
2013-03-01 07:32:00,32.0,30.0,-100.00,ESE,110,4.0,6.0,94,0.00,,,0.01,0.000000,,2013-03-01 14:32:00,
2013-03-01 07:52:00,33.0,32.0,-100.00,East,95,4.0,6.0,95,0.00,,,0.01,4.000000,,2013-03-01 14:52:00,
2013-03-01 08:01:00,33.0,32.0,-100.00,East,95,4.0,6.0,95,0.00,,,0.01,4.000000,,2013-03-01 15:01:00,
2013-03-01 08:11:00,33.0,32.0,-100.00,East,95,4.0,6.0,95,0.00,,,0.01,4.000000,,2013-03-01 15:11:00,
2013-03-01 08:21:00,33.0,32.0,-100.00,East,95,4.0,6.0,95,0.00,,,0.01,4.000000,,2013-03-01 15:21:00,
2013-03-01 08:31:00,33.0,32.0,-100.00,East,95,4.0,6.0,95,0.00,,,0.01,4.000000,,2013-03-01 15:31:00,
2013-03-01 08:52:00,34.0,32.0,-100.00,ESE,111,2.0,5.0,93,0.00,,,0.01,58.000000,,2013-03-01 15:52:00,
2013-03-01 09:01:00,34.0,32.0,-100.00,ESE,111,2.0,5.0,93,0.00,,,0.01,58.000000,,2013-03-01 16:01:00,
2013-03-01 09:11:00,34.0,32.0,-100.00,ESE,111,2.0,5.0,93,0.00,,,0.01,58.000000,,2013-03-01 16:11:00,
2013-03-01 09:21:00,34.0,32.0,-100.00,ESE,111,2.0,5.0,93,0.00,,,0.01,58.000000,,2013-03-01 16:21:00,
2013-03-01 09:31:00,34.0,32.0,-100.00,ESE,111,2.0,5.0,93,0.00,,,0.01,58.000000,,2013-03-01 16:31:00,
2013-03-01 09:52:00,38.0,33.0,-100.00,East,97,3.0,6.0,82,0.00,,,0.01,218.000000,,2013-03-01 16:52:00,
2013-03-01 10:01:00,38.0,33.0,-100.00,East,97,3.0,6.0,82,0.00,,,0.01,218.000000,,2013-03-01 17:01:00,
2013-03-01 10:11:00,38.0,33.0,-100.00,East,97,3.0,6.0,82,0.00,,,0.01,218.000000,,2013-03-01 17:11:00,
2013-03-01 10:21:00,38.0,33.0,-100.00,East,97,3.0,6.0,82,0.00,,,0.01,218.000000,,2013-03-01 17:21:00,
2013-03-01 10:31:00,38.0,33.0,-100.00,East,97,3.0,6.0,82,0.00,,,0.01,218.000000,,2013-03-01 17:31:00,
2013-03-01 10:52:00,41.0,34.0,-100.00,NNW,329,2.0,7.0,76,0.00,,,0.00,254.000000,,2013-03-01 17:52:00,
2013-03-01 11:01:00,41.0,34.0,-100.00,NNW,329,2.0,7.0,76,0.00,,,0.00,254.000000,,2013-03-01 18:01:00,
2013-03-01 11:12:00,41.0,34.0,-100.00,NNW,329,2.0,7.0,76,0.00,,,0.00,254.000000,,2013-03-01 18:12:00,
2013-03-01 11:22:00,41.0,34.0,-100.00,NNW,329,2.0,7.0,76,0.00,,,0.00,254.000000,,2013-03-01 18:22:00,
2013-03-01 11:31:00,41.0,34.0,-100.00,NNW,329,2.0,7.0,76,0.00,,,0.00,254.000000,,2013-03-01 18:31:00,
2013-03-01 11:52:00,48.0,36.0,-100.00,South,184,7.0,13.0,62,0.00,,,0.00,405.000000,,2013-03-01 18:52:00,
2013-03-01 12:01:00,48.0,36.0,-100.00,South,184,7.0,13.0,62,0.00,,,0.00,405.000000,,2013-03-01 19:01:00,
2013-03-01 12:11:00,48.0,36.0,-100.00,South,184,7.0,13.0,62,0.00,,,0.00,405.000000,,2013-03-01 19:11:00,
2013-03-01 12:21:00,48.0,36.0,-100.00,South,184,7.0,13.0,62,0.00,,,0.00,405.000000,,2013-03-01 19:21:00,
2013-03-01 12:31:00,48.0,36.0,-100.00,South,184,7.0,13.0,62,0.00,,,0.00,405.000000,,2013-03-01 19:31:00,
2013-03-01 12:52:00,51.0,34.0,-100.00,South,174,6.0,16.0,52,0.00,,,0.00,728.000000,,2013-03-01 19:52:00,
2013-03-01 13:01:00,51.0,34.0,-100.00,South,174,6.0,16.0,52,0.00,,,0.00,728.000000,,2013-03-01 20:01:00,
2013-03-01 13:11:00,51.0,34.0,-100.00,South,174,6.0,16.0,52,0.00,,,0.00,728.000000,,2013-03-01 20:11:00,
2013-03-01 13:21:00,51.0,34.0,-100.00,South,174,6.0,16.0,52,0.00,,,0.00,728.000000,,2013-03-01 20:21:00,
2013-03-01 13:31:00,51.0,34.0,-100.00,South,174,6.0,16.0,52,0.00,,,0.00,728.000000,,2013-03-01 20:31:00,
2013-03-01 13:52:00,49.0,30.0,-100.00,SW,231,8.0,18.0,47,0.00,,,0.00,642.000000,,2013-03-01 20:52:00,
2013-03-01 14:01:00,49.0,30.0,-100.00,SW,231,8.0,18.0,47,0.00,,,0.00,642.000000,,2013-03-01 21:01:00,
2013-03-01 14:11:00,49.0,30.0,-100.00,SW,231,8.0,18.0,47,0.00,,,0.00,642.000000,,2013-03-01 21:11:00,
2013-03-01 14:21:00,49.0,30.0,-100.00,SW,231,8.0,18.0,47,0.00,,,0.00,642.000000,,2013-03-01 21:21:00,
2013-03-01 14:31:00,49.0,30.0,-100.00,SW,231,8.0,18.0,47,0.00,,,0.00,642.000000,,2013-03-01 21:31:00,
2013-03-01 14:52:00,49.0,30.0,-100.00,WSW,244,8.0,20.0,47,0.00,,,0.00,623.000000,,2013-03-01 21:52:00,
2013-03-01 15:01:00,49.0,30.0,-100.00,WSW,244,8.0,20.0,47,0.00,,,0.00,623.000000,,2013-03-01 22:01:00,
2013-03-01 15:11:00,49.0,30.0,-100.00,WSW,244,8.0,20.0,47,0.00,,,0.00,623.000000,,2013-03-01 22:11:00,
2013-03-01 15:21:00,49.0,30.0,-100.00,WSW,244,8.0,20.0,47,0.00,,,0.00,623.000000,,2013-03-01 22:21:00,
2013-03-01 15:31:00,49.0,30.0,-100.00,WSW,244,8.0,20.0,47,0.00,,,0.00,623.000000,,2013-03-01 22:31:00,
2013-03-01 15:52:00,46.0,29.0,-100.00,SW,217,9.0,18.0,52,0.00,,,0.00,273.000000,,2013-03-01 22:52:00,
2013-03-01 16:01:00,46.0,29.0,-100.00,SW,217,9.0,18.0,52,0.00,,,0.00,273.000000,,2013-03-01 23:01:00,
2013-03-01 16:11:00,46.0,29.0,-100.00,SW,217,9.0,18.0,52,0.00,,,0.00,273.000000,,2013-03-01 23:11:00,
2013-03-01 16:21:00,46.0,29.0,-100.00,SW,217,9.0,18.0,52,0.00,,,0.00,273.000000,,2013-03-01 23:21:00,
2013-03-01 16:31:00,46.0,29.0,-100.00,SW,217,9.0,18.0,52,0.00,,,0.00,273.000000,,2013-03-01 23:31:00,
2013-03-01 16:52:00,46.0,31.0,-100.00,SSW,192,5.0,14.0,55,0.00,,,0.00,235.000000,,2013-03-01 23:52:00,
2013-03-01 17:01:00,46.0,31.0,-100.00,SSW,192,5.0,14.0,55,0.00,,,0.00,235.000000,,2013-03-02 00:01:00,
2013-03-01 17:11:00,46.0,31.0,-100.00,SSW,192,5.0,14.0,55,0.00,,,0.00,235.000000,,2013-03-02 00:11:00,
2013-03-01 17:21:00,46.0,31.0,-100.00,SSW,192,5.0,14.0,55,0.00,,,0.00,235.000000,,2013-03-02 00:21:00,
2013-03-01 17:31:00,46.0,31.0,-100.00,SSW,192,5.0,14.0,55,0.00,,,0.00,235.000000,,2013-03-02 00:31:00,
2013-03-01 18:01:00,46.0,31.0,-100.00,SW,215,4.0,10.0,55,0.00,,,0.00,173.000000,,2013-03-02 01:01:00,
2013-03-01 18:11:00,46.0,31.0,-100.00,SW,215,4.0,10.0,55,0.00,,,0.00,173.000000,,2013-03-02 01:11:00,
2013-03-01 18:21:00,46.0,31.0,-100.00,SW,215,4.0,10.0,55,0.00,,,0.00,173.000000,,2013-03-02 01:21:00,
2013-03-01 18:31:00,46.0,31.0,-100.00,SW,215,4.0,10.0,55,0.00,,,0.00,173.000000,,2013-03-02 01:31:00,
2013-03-01 19:01:00,43.0,30.0,-100.00,WNW,288,3.0,9.0,60,0.00,,,0.00,26.000000,,2013-03-02 02:01:00,
2013-03-01 19:11:00,43.0,30.0,-100.00,WNW,288,3.0,9.0,60,0.00,,,0.00,26.000000,,2013-03-02 02:11:00,
2013-03-01 19:21:00,43.0,30.0,-100.00,WNW,288,3.0,9.0,60,0.00,,,0.00,26.000000,,2013-03-02 02:21:00,
2013-03-01 19:31:00,43.0,30.0,-100.00,WNW,288,3.0,9.0,60,0.00,,,0.00,26.000000,,2013-03-02 02:31:00,
2013-03-01 20:01:00,41.0,30.0,-100.00,ESE,107,6.0,8.0,64,0.00,,,0.00,0.000000,,2013-03-02 03:01:00,
2013-03-01 20:11:00,41.0,30.0,-100.00,ESE,107,6.0,8.0,64,0.00,,,0.00,0.000000,,2013-03-02 03:11:00,
2013-03-01 20:21:00,41.0,30.0,-100.00,ESE,107,6.0,8.0,64,0.00,,,0.00,0.000000,,2013-03-02 03:21:00,
2013-03-01 20:32:00,41.0,30.0,-100.00,ESE,107,6.0,8.0,64,0.00,,,0.00,0.000000,,2013-03-02 03:32:00,
2013-03-01 20:52:00,38.0,29.0,-100.00,East,99,5.0,8.0,71,0.00,,,0.00,0.000000,,2013-03-02 03:52:00,
2013-03-01 21:01:00,38.0,29.0,-100.00,East,99,5.0,8.0,71,0.00,,,0.00,0.000000,,2013-03-02 04:01:00,
2013-03-01 21:11:00,38.0,29.0,-100.00,East,99,5.0,8.0,71,0.00,,,0.00,0.000000,,2013-03-02 04:11:00,
2013-03-01 21:21:00,38.0,29.0,-100.00,East,99,5.0,8.0,71,0.00,,,0.00,0.000000,,2013-03-02 04:21:00,
2013-03-01 21:31:00,38.0,29.0,-100.00,East,99,5.0,8.0,71,0.00,,,0.00,0.000000,,2013-03-02 04:31:00,
2013-03-01 21:52:00,37.0,30.0,-100.00,ESE,103,5.0,7.0,75,0.00,,,0.00,0.000000,,2013-03-02 04:52:00,
2013-03-01 22:01:00,37.0,30.0,-100.00,ESE,103,5.0,7.0,75,0.00,,,0.00,0.000000,,2013-03-02 05:01:00,
2013-03-01 22:12:00,37.0,30.0,-100.00,ESE,103,5.0,7.0,75,0.00,,,0.00,0.000000,,2013-03-02 05:12:00,
2013-03-01 22:22:00,37.0,30.0,-100.00,ESE,103,5.0,7.0,75,0.00,,,0.00,0.000000,,2013-03-02 05:22:00,
2013-03-01 22:31:00,37.0,30.0,-100.00,ESE,103,5.0,7.0,75,0.00,,,0.00,0.000000,,2013-03-02 05:31:00,
2013-03-01 23:01:00,36.0,30.0,-100.00,ESE,111,3.0,5.0,78,0.00,,,0.00,0.000000,,2013-03-02 06:01:00,
2013-03-01 23:11:00,36.0,30.0,-100.00,ESE,111,3.0,5.0,78,0.00,,,0.00,0.000000,,2013-03-02 06:11:00,
2013-03-01 23:21:00,36.0,30.0,-100.00,ESE,111,3.0,5.0,78,0.00,,,0.00,0.000000,,2013-03-02 06:21:00,
2013-03-01 23:31:00,36.0,30.0,-100.00,ESE,111,3.0,5.0,78,0.00,,,0.00,0.000000,,2013-03-02 06:31:00,
2013-03-01 23:52:00,35.0,30.0,-100.00,East,95,3.0,8.0,81,0.00,,,0.00,0.000000,,2013-03-02 06:52:00,